Regional Weather Roundup
Issued by NWS State College, PA

Home | Current Version | Previous Version | Text Only | Print | Product List | Glossary On
Versions: 1 2 3 4 5 6 7 8 9 10 11 12 13 14 15 16 17 18 19 20 21 22 23 24 25 26 27 28 29 30 31 32 33 34 35 36 37 38 39 40 41 42 43 44 45 46 47 48 49 50
000
ASUS41 KCTP 182110
RWRCTP

REGIONAL WEATHER ROUNDUP
NATIONAL WEATHER SERVICE STATE COLLEGE PA
500 PM EDT FRI APR 18 2014

Note: "fair" indicates few or no clouds below 12,000 feet with no
significant weather and/or obstructions to visibility.

* = STATION THAT DOES NOT REPORT PRECIPITATION /E.G. RAIN...SNOW...ETC/
    THUNDER OR FOG.

PAZ002>004-007>009-013>016-020>023-029>032-182200-
WESTERN PENNSYLVANIA

CITY           SKY/WX    TMP DP  RH WIND       PRES   REMARKS
ERIE           CLOUDY    58  38  47 NW8       30.24S
MEADVILLE      NOT AVBL
FRANKLIN*      MOSUNNY   64  34  32 W14       30.23F
NEW CASTLE     FAIR      66  33  29 W8G21     30.22F
BEAVER COUNTY  MOSUNNY   66  32  28 NW12G18   30.21S
BUTLER*        PTSUNNY   66  32  28 W3        30.22F
PITTSBURGH INT CLOUDY    67  31  26 W9G18     30.20F
PITTSBURGH     PTSUNNY   69  29  22 W9        30.20F
INDIANA*       PTSUNNY   64  28  25 W5        30.21F
LATROBE        SUNNY     66  30  26 W12       30.21F
WASHINGTON CO* PTSUNNY   66  30  26 W6        30.23F
$$

PAZ004>006-010>012-017>019-024>028-033>037-041-042-045-046-049>053-182200-
CENTRAL PENNSYLVANIA

CITY           SKY/WX    TMP DP  RH WIND       PRES   REMARKS
BRADFORD       PTSUNNY   63  25  23 W12G20    30.19F
DUBOIS         PTSUNNY   65  27  23 S8        30.20F
CLEARFIELD     PTSUNNY   62  30  29 S5        30.21F
JOHNSTOWN      PTSUNNY   60  30  32 S9        30.20F
ALTOONA        PTSUNNY   58  34  40 S8        30.24F
STATE COLLEGE  SUNNY     59  32  36 S12       30.23F
WILLIAMSPORT   PTSUNNY   54  31  41 E9G16     30.27F
SELINSGROVE    CLOUDY    54  32  43 S7        30.30F
FT INDIANTOWN  PTSUNNY   52  34  50 VRB6      30.31F
CAPITAL CITY   PTSUNNY   53  34  48 E10       30.31F
HARRISBURG     PTSUNNY   55  34  45 SE10      30.31F
YORK           MOSUNNY   55  32  41 S3        30.31F
$$

PAZ038>040-043-044-047-048-054-055-060>062-067>071-182200-
EASTERN PENNSYLVANIA

CITY           SKY/WX    TMP DP  RH WIND       PRES   REMARKS
SCRANTON       CLOUDY    53  28  38 S10G18    30.27F
MOUNT POCONO   CLOUDY    46  27  47 S9        30.27F
ALLENTOWN      PTSUNNY   53  29  39 S6        30.33F
QUAKERTOWN*    PTSUNNY   50  30  46 CALM      30.34F
READING        PTSUNNY   56  32  40 W3        30.31F
LANCASTER      PTSUNNY   52  32  46 VRB5      30.33F
COATESVILLE    NOT AVBL
POTTSTOWN      PTSUNNY   52  32  46 CALM      30.35F
BLUE BELL      MOSUNNY   54  30  40 CALM      30.34F
DOYLESTOWN     PTSUNNY   49  30  48 VRB5      30.34F
WILLOW GROVE   NOT AVBL
NORTH PHILA    PTSUNNY   53  29  39 E6        30.36F
PHILADELPHIA   PTSUNNY   55  30  38 CALM      30.36F
$$



USA.gov is the U.S. government's official web portal to all federal, state and local government web resources and services.